This demonstration page uses our WeatherBlox Daily Observations layout. Learn more.

Left ArrowRight Arrow

Hourly Observations for April 27, 2019

Temp ( °F °C ) Dew Point ( °F °C ) Humidity (%) Winds ( mph kmh ) Pressure ( in mb ) Visibility ( mi km ) Precip ( " mm )
12:15 am 00:15 Mostly Cloudy 59 15.1 49 9.7 70 70 SE 6 9 29.63 1003 10 16 N/A
12:35 am 00:35 Cloudy with Nearby Thunderstorms 60 15.5 48 9.1 66 66 NE 7 11 29.62 1003 10 16 N/A
12:55 am 00:55 Partly Cloudy 58 14.6 49 9.3 71 71 E 9 15 29.61 1003 10 16 N/A
1:15 am 01:15 Clear 58 14.4 49 9.2 71 71 E 10 17 29.58 1002 10 16 N/A
1:35 am 01:35 Clear 56 13.6 49 9.5 76 76 ENE 6 9 29.59 1002 10 16 N/A
1:55 am 01:55 Clear 57 13.8 48 9.1 73 73 E 9 15 29.58 1002 10 16 N/A
2:15 am 02:15 Clear 56 13.2 49 9.2 77 77 E 7 11 29.59 1002 10 16 N/A
2:35 am 02:35 Clear 55 13 48 8.8 76 76 E 6 9 29.58 1002 10 16 N/A
2:55 am 02:55 Clear 54 12.4 47 8.6 78 78 ESE 7 11 29.59 1002 10 16 N/A
3:15 am 03:15 Clear 53 11.8 47 8.2 79 79 N N/A 29.59 1002 10 16 N/A
3:35 am 03:35 Clear 50 10.1 46 8 87 87 N N/A 29.62 1003 10 16 N/A
3:55 am 03:55 Clear 50 10 47 8.1 88 88 W 8 13 29.62 1003 10 16 N/A
4:15 am 04:15 Clear 50 9.8 46 8 89 89 W 6 9 29.62 1003 10 16 N/A
4:35 am 04:35 Clear 49 9.7 46 8 89 89 WNW 10 17 29.63 1004 10 16 N/A
4:55 am 04:55 Clear 51 10.7 48 8.7 88 88 WNW 13 20 29.63 1004 10 16 N/A
5:15 am 05:15 Clear 54 12.1 49 9.2 83 83 WNW 22 35 29.64 1004 10 16 N/A
5:35 am 05:35 Clear 53 11.7 44 6.4 70 70 WNW 23 37 29.67 1005 10 16 N/A
5:55 am 05:55 Clear 51 10.4 42 5.4 71 71 NW 24 39 29.69 1005 10 16 N/A
6:15 am 06:15 Clear 49 9.6 40 4.6 71 71 NW 26 43 29.71 1006 10 16 N/A
6:35 am 06:35 Clear 47 8.5 39 3.8 73 73 NW 26 43 29.74 1007 10 16 N/A
6:55 am 06:55 Sunny 46 8 38 3.5 74 74 NW 28 44 29.77 1008 10 16 N/A
7:15 am 07:15 Sunny 46 7.5 38 3.1 74 74 NW 28 44 29.79 1009 10 16 N/A
7:35 am 07:35 Sunny 45 7.4 37 2.7 72 72 NW 24 39 29.82 1010 10 16 N/A
7:55 am 07:55 Sunny 44 6.8 37 2.5 74 74 NW 26 43 29.84 1011 10 16 N/A
8:15 am 08:15 Partly Cloudy 45 7.1 37 2.9 75 75 NNW 30 48 29.87 1011 10 16 N/A
8:35 am 08:35 Mostly Cloudy 45 7.1 37 2.8 74 74 NNW 29 46 29.88 1012 10 16 N/A
8:55 am 08:55 Cloudy 45 7.2 37 2.7 73 73 NNW 32 52 29.89 1012 10 16 N/A
9:15 am 09:15 Cloudy 46 7.5 38 3.2 74 74 NNW 36 57 29.90 1013 10 16 N/A
9:35 am 09:35 Cloudy 46 7.5 38 3.1 74 74 NNW 31 50 29.92 1013 10 16 N/A
9:55 am 09:55 Cloudy 45 7 37 2.9 75 75 NNW 31 50 29.95 1014 10 16 N/A
10:15 am 10:15 Cloudy 44 6.9 37 3 76 76 NNW 22 35 29.96 1015 10 16 N/A
10:35 am 10:35 Cloudy 43 6.3 36 2.4 76 76 NNW 30 48 29.98 1015 10 16 N/A
10:55 am 10:55 Cloudy 44 6.9 37 3 76 76 NNW 25 41 29.99 1016 10 16 N/A
11:15 am 11:15 Cloudy 45 7.1 37 2.8 74 74 N 26 43 29.98 1015 10 16 N/A
11:35 am 11:35 Mostly Cloudy 46 7.9 38 3.3 73 73 N 28 44 29.99 1016 10 16 N/A
11:55 am 11:55 Cloudy 47 8.3 38 3.4 72 72 N 26 43 30.00 1016 10 16 N/A
12:15 pm 12:15 Cloudy 47 8.3 38 3.4 72 72 N 25 41 30.00 1016 10 16 N/A
12:35 pm 12:35 Mostly Cloudy 48 9.1 39 3.8 70 70 N 23 37 30.00 1016 10 16 N/A
12:55 pm 12:55 Mostly Cloudy 48 8.9 39 3.7 70 70 N 17 28 30.00 1016 10 16 N/A
1:15 pm 13:15 Mostly Cloudy 48 9.1 39 3.8 70 70 N 21 33 30.00 1016 10 16 N/A
1:35 pm 13:35 Mostly Cloudy 50 9.8 40 4.2 68 68 N 21 33 29.99 1016 10 16 N/A
1:55 pm 13:55 Mostly Cloudy 50 10.1 40 4.2 67 67 N 21 33 29.99 1016 10 16 N/A
2:15 pm 14:15 Mostly Cloudy 51 10.4 40 4.3 66 66 N 22 35 29.99 1015 10 16 N/A
2:35 pm 14:35 Cloudy 50 10.2 40 4.3 67 67 N 20 31 29.98 1015 10 16 N/A
2:55 pm 14:55 Mostly Cloudy 50 10.1 40 4.2 67 67 N 20 31 29.99 1016 10 16 N/A
3:15 pm 15:15 Mostly Cloudy 50 10.1 38 3.5 64 64 NNE 15 24 29.99 1016 10 16 N/A
3:35 pm 15:35 Mostly Cloudy 51 10.7 39 4 64 64 N 13 20 29.98 1015 10 16 N/A
3:55 pm 15:55 Mostly Cloudy 52 11 39 3.7 61 61 N 9 15 29.98 1015 10 16 N/A
4:15 pm 16:15 Mostly Cloudy 50 10.2 38 3.1 62 62 NNE 13 20 29.99 1016 10 16 N/A
4:35 pm 16:35 Mostly Cloudy 53 11.4 39 4 61 61 NNE 12 19 29.97 1015 10 16 N/A
4:55 pm 16:55 Partly Cloudy 52 11 38 3.6 61 61 NNE 13 20 29.97 1015 10 16 N/A
5:15 pm 17:15 Partly Cloudy 51 10.3 38 3.2 62 62 NE 14 22 29.97 1015 10 16 N/A
5:35 pm 17:35 Partly Cloudy 51 10.7 38 3.3 61 61 NNE 14 22 29.95 1014 10 16 N/A
5:55 pm 17:55 Sunny 51 10.4 38 3.2 61 61 ENE 13 20 29.96 1014 10 16 N/A
6:15 pm 18:15 Partly Cloudy 51 10.4 38 3.2 61 61 ENE 15 24 29.96 1014 10 16 N/A
6:35 pm 18:35 Partly Cloudy 50 9.9 37 2.7 61 61 NE 10 17 29.96 1015 10 16 N/A
6:55 pm 18:55 Partly Cloudy 49 9.6 37 2.9 63 63 ENE 14 22 29.95 1014 10 16 N/A
7:15 pm 19:15 Partly Cloudy 48 9 37 3 66 66 NE 12 19 29.97 1015 10 16 N/A
7:35 pm 19:35 Partly Cloudy 46 8 37 2.7 69 69 ENE 12 19 29.98 1015 10 16 N/A
7:55 pm 19:55 Partly Cloudy 45 7 37 2.5 73 73 ENE 10 17 30.00 1016 10 16 N/A
8:15 pm 20:15 Sunny 43 6.3 36 2.1 75 75 ENE 10 17 30.02 1016 10 16 N/A
8:35 pm 20:35 Partly Cloudy 42 5.8 36 2 77 77 ENE 13 20 30.02 1017 10 16 N/A
8:55 pm 20:55 Mostly Cloudy 42 5.6 36 2 78 78 ENE 9 15 30.03 1017 10 16 N/A
9:15 pm 21:15 Cloudy 42 5.7 35 1.6 75 75 E 12 19 30.04 1017 10 16 N/A
9:35 pm 21:35 Cloudy 42 5.5 35 1.5 76 76 E 8 13 30.07 1018 10 16 N/A
9:55 pm 21:55 Cloudy 42 5.5 35 1.4 75 75 SE 9 15 30.07 1018 10 16 N/A
10:15 pm 22:15 Cloudy 42 5.5 35 1.5 76 76 ESE 9 15 30.08 1019 10 16 N/A
10:35 pm 22:35 Cloudy 41 5.2 34 1.1 75 75 ESE 8 13 30.08 1018 10 16 N/A
10:55 pm 22:55 Cloudy 42 5.3 34 1.3 76 76 ESE 9 15 30.08 1018 10 16 N/A
11:15 pm 23:15 Cloudy 42 5.5 35 1.5 76 76 E 10 17 30.07 1018 10 16 N/A
11:35 pm 23:35 Cloudy 42 5.5 35 1.5 76 76 ESE 12 19 30.07 1018 10 16 N/A
11:55 pm 23:55 Cloudy 42 5.5 35 1.5 76 76 SE 12 19 30.06 1018 10 16 N/A

Powered by AerisWeather